Location: PSU-Greenbush Astrophysical Observatory
(37.5140°N, 94.9880°W)
Time: 09:26:11
(UTC-06:00)

deb Explorer IX - Pass Details

Date: 25 January 2020
Orbit: 549 x 1099 km, 38.8° (Epoch: 17 February)

Event Time Altitude Azimuth Distance (km) Brightness Sun altitude
Rises 00:02:23 0° 268° (W) 3,848 - -70.5°
Reaches altitude 10° 00:05:05 10° 269° (W) 2,924 - -70.6°
Maximum altitude 00:12:24 81° 357° (N) 1,110 - -71.1°
Drops below altitude 10° 00:19:34 10° 85° (E) 2,870 - -71.4°
Sets 00:22:12 0° 87° (E) 3,773 - -71.4°
